N83ML KTPA-

Flight info

Callsign N83ML
Flight time N/A
Altitude VFR
Route
Aircraft A139/L-VGD/C

Departure

Time 2026-05-04 17:11
Airport Tampa International Airport (KTPA)

Arrival

Time N/A
Airport -
Time Latitude Longitude Altitude Speed Heading
2026-05-04 17:04 27.91292 -82.45142 10 ft 0 kts 37°
2026-05-04 17:10 27.91537 -82.44795 393 ft 68 kts 85°
2026-05-04 17:11 27.91119 -82.44380 691 ft 102 kts 154°
2026-05-04 17:11 27.90371 -82.43931 765 ft 135 kts 146°
2026-05-04 17:11 27.88672 -82.42574 898 ft 155 kts 137°
2026-05-04 17:12 27.87736 -82.41929 942 ft 160 kts 155°
2026-05-04 17:12 27.85572 -82.41347 1136 ft 158 kts 161°
2026-05-04 17:13 27.82295 -82.40393 1083 ft 163 kts 164°
2026-05-04 17:14 27.79768 -82.39655 1092 ft 162 kts 163°
2026-05-04 17:14 27.78668 -82.39329 1085 ft 162 kts 163°
2026-05-04 17:14 27.76476 -82.38681 1081 ft 162 kts 163°
2026-05-04 17:15 27.75361 -82.38351 1080 ft 162 kts 163°
2026-05-04 17:15 27.73163 -82.37701 1081 ft 162 kts 163°
2026-05-04 17:16 27.70963 -82.37025 1084 ft 162 kts 159°
2026-05-04 17:16 27.67739 -82.35770 1082 ft 162 kts 159°
2026-05-04 17:17 27.66670 -82.35352 1082 ft 162 kts 159°
2026-05-04 17:17 27.63431 -82.34087 1081 ft 162 kts 160°
2026-05-04 17:18 27.62320 -82.33785 1085 ft 162 kts 166°
2026-05-04 17:18 27.60471 -82.33323 1084 ft 162 kts 166°
2026-05-04 17:19 27.57865 -82.32676 1082 ft 162 kts 166°
2026-05-04 17:19 27.56017 -82.32218 1081 ft 162 kts 166°
2026-05-04 17:20 27.53433 -82.31578 1082 ft 162 kts 166°
2026-05-04 17:20 27.51213 -82.31028 1082 ft 162 kts 166°
2026-05-04 17:20 27.50104 -82.30754 1082 ft 162 kts 166°
2026-05-04 17:21 27.47891 -82.30206 1082 ft 162 kts 166°
2026-05-04 17:21 27.45682 -82.29661 1082 ft 162 kts 166°
2026-05-04 17:22 27.44573 -82.29387 1082 ft 162 kts 166°
2026-05-04 17:22 27.43468 -82.29115 1082 ft 162 kts 166°
2026-05-04 17:23 27.40140 -82.28294 1082 ft 162 kts 166°
2026-05-04 17:23 27.39032 -82.28020 1082 ft 162 kts 166°
2026-05-04 17:23 27.36821 -82.27474 1082 ft 162 kts 166°
2026-05-04 17:24 27.35710 -82.27200 1082 ft 162 kts 166°
2026-05-04 17:24 27.32387 -82.26381 1082 ft 162 kts 166°
2026-05-04 17:25 27.31273 -82.26106 1082 ft 162 kts 166°
2026-05-04 17:25 27.29060 -82.25561 1082 ft 162 kts 166°
2026-05-04 17:26 27.26850 -82.25016 1082 ft 162 kts 166°
2026-05-04 17:26 27.23890 -82.24287 1082 ft 162 kts 166°
2026-05-04 17:27 27.21306 -82.23650 1082 ft 162 kts 166°
2026-05-04 17:27 27.19090 -82.23105 1082 ft 162 kts 166°
2026-05-04 17:28 27.16877 -82.22561 1082 ft 162 kts 166°
2026-05-04 17:29 27.13562 -82.21746 1082 ft 162 kts 166°
2026-05-04 17:29 27.10246 -82.20931 1082 ft 162 kts 166°
2026-05-04 17:30 27.06918 -82.20114 1082 ft 162 kts 166°
2026-05-04 17:31 27.04692 -82.19568 1082 ft 162 kts 166°
2026-05-04 17:31 27.01355 -82.18749 1082 ft 162 kts 166°
2026-05-04 17:32 26.99121 -82.18201 1082 ft 162 kts 166°
2026-05-04 17:33 26.95791 -82.17386 1082 ft 162 kts 166°
2026-05-04 17:33 26.94677 -82.17113 1082 ft 162 kts 166°
2026-05-04 17:34 26.91345 -82.16296 1082 ft 162 kts 166°
2026-05-04 17:34 26.90234 -82.16025 1082 ft 162 kts 166°
2026-05-04 17:35 26.86887 -82.15204 1082 ft 162 kts 166°
2026-05-04 17:35 26.84654 -82.14658 1082 ft 162 kts 166°
2026-05-04 17:35 26.83532 -82.14383 1082 ft 162 kts 166°
2026-05-04 17:36 26.82417 -82.14110 1082 ft 162 kts 166°
2026-05-04 17:36 26.81303 -82.13837 1082 ft 162 kts 166°
2026-05-04 17:36 26.80257 -82.13375 1079 ft 162 kts 150°
2026-05-04 17:36 26.79236 -82.12807 1083 ft 162 kts 152°
2026-05-04 17:37 26.78217 -82.12241 1082 ft 162 kts 152°
2026-05-04 17:37 26.77199 -82.11675 1082 ft 162 kts 152°
2026-05-04 17:37 26.76176 -82.11108 1082 ft 162 kts 152°
2026-05-04 17:37 26.75158 -82.10544 1082 ft 162 kts 152°
2026-05-04 17:38 26.74150 -82.09984 1082 ft 162 kts 152°
2026-05-04 17:38 26.73113 -82.09460 1083 ft 162 kts 154°
2026-05-04 17:38 26.72080 -82.08932 1083 ft 162 kts 153°
2026-05-04 17:38 26.71053 -82.08390 1082 ft 162 kts 152°
2026-05-04 17:39 26.69010 -82.07287 1082 ft 162 kts 152°
2026-05-04 17:39 26.67991 -82.06728 1082 ft 162 kts 152°
2026-05-04 17:39 26.66979 -82.06171 1082 ft 162 kts 152°
2026-05-04 17:40 26.65968 -82.05615 1082 ft 162 kts 152°
2026-05-04 17:40 26.64946 -82.05049 1082 ft 162 kts 152°
2026-05-04 17:40 26.63928 -82.04485 1082 ft 162 kts 152°
2026-05-04 17:40 26.62910 -82.03921 1082 ft 162 kts 152°
2026-05-04 17:41 26.61894 -82.03358 1082 ft 162 kts 152°
2026-05-04 17:41 26.60887 -82.02799 1082 ft 162 kts 152°
2026-05-04 17:41 26.59872 -82.02235 1082 ft 162 kts 152°
2026-05-04 17:41 26.58854 -82.01670 1082 ft 162 kts 151°
2026-05-04 17:42 26.58177 -82.01294 1082 ft 162 kts 151°
2026-05-04 17:42 26.56828 -82.00545 1082 ft 162 kts 151°
2026-05-04 17:42 26.55802 -81.99975 1082 ft 162 kts 151°
2026-05-04 17:42 26.54784 -81.99410 1082 ft 162 kts 152°
2026-05-04 17:43 26.53768 -81.98846 1082 ft 162 kts 152°
2026-05-04 17:43 26.52756 -81.98286 1082 ft 162 kts 151°
2026-05-04 17:43 26.51746 -81.97726 1082 ft 162 kts 151°
2026-05-04 17:43 26.50721 -81.97158 1082 ft 162 kts 151°
2026-05-04 17:44 26.49702 -81.96594 1082 ft 162 kts 151°
2026-05-04 17:44 26.48686 -81.96032 1022 ft 162 kts 150°
2026-05-04 17:44 26.47682 -81.95471 862 ft 162 kts 150°
2026-05-04 17:44 26.46667 -81.94905 687 ft 162 kts 150°
2026-05-04 17:45 26.45655 -81.94344 632 ft 162 kts 152°
2026-05-04 17:45 26.44631 -81.93781 646 ft 161 kts 152°
2026-05-04 17:45 26.43615 -81.93222 667 ft 161 kts 152°
2026-05-04 17:45 26.42599 -81.92660 679 ft 161 kts 152°
2026-05-04 17:46 26.41601 -81.92109 684 ft 161 kts 151°
2026-05-04 17:46 26.40586 -81.91547 686 ft 161 kts 151°
2026-05-04 17:46 26.39578 -81.90990 686 ft 161 kts 151°
2026-05-04 17:46 26.38561 -81.90428 684 ft 161 kts 151°
2026-05-04 17:47 26.37546 -81.89867 683 ft 161 kts 151°
2026-05-04 17:47 26.36533 -81.89307 682 ft 161 kts 151°
2026-05-04 17:47 26.35865 -81.88938 682 ft 161 kts 151°
2026-05-04 17:47 26.34508 -81.88188 682 ft 161 kts 151°
2026-05-04 17:48 26.33502 -81.87633 682 ft 161 kts 151°
2026-05-04 17:48 26.32486 -81.87072 682 ft 161 kts 151°
2026-05-04 17:48 26.31480 -81.86517 682 ft 161 kts 151°
2026-05-04 17:48 26.30468 -81.85958 682 ft 161 kts 151°
2026-05-04 17:49 26.29451 -81.85397 682 ft 161 kts 151°
2026-05-04 17:49 26.28429 -81.84833 682 ft 161 kts 151°
2026-05-04 17:49 26.27426 -81.84279 724 ft 158 kts 151°
2026-05-04 17:49 26.26450 -81.83742 743 ft 152 kts 150°
2026-05-04 17:50 26.25507 -81.83220 692 ft 151 kts 150°
2026-05-04 17:50 26.24558 -81.82697 663 ft 151 kts 151°
2026-05-04 17:50 26.23623 -81.82184 751 ft 142 kts 150°
2026-05-04 17:50 26.22760 -81.81737 728 ft 135 kts 153°
2026-05-04 17:51 26.21896 -81.81329 682 ft 133 kts 153°
2026-05-04 17:51 26.21037 -81.80916 661 ft 132 kts 153°
2026-05-04 17:51 26.20197 -81.80507 662 ft 132 kts 153°
2026-05-04 17:51 26.19408 -81.80121 669 ft 131 kts 152°
2026-05-04 17:52 26.18689 -81.79739 742 ft 101 kts 153°
2026-05-04 17:52 26.18286 -81.79499 717 ft 96 kts 155°
2026-05-04 17:52 26.17515 -81.79043 638 ft 90 kts 158°
2026-05-04 17:52 26.16929 -81.78845 609 ft 86 kts 167°
2026-05-04 17:53 26.16378 -81.78601 543 ft 81 kts 151°
2026-05-04 17:53 26.15959 -81.78233 381 ft 71 kts 135°
2026-05-04 17:53 26.15741 -81.77988 281 ft 60 kts 136°
2026-05-04 17:53 26.15426 -81.77632 54 ft 37 kts 136°
2026-05-04 17:54 26.15263 -81.77445 22 ft 30 kts 115°
2026-05-04 17:54 26.15247 -81.77403 15 ft 1 kts 42°
2026-05-04 17:54 26.15253 -81.77396 11 ft 5 kts 43°
2026-05-04 17:54 26.15292 -81.77354 10 ft 7 kts 44°
2026-05-04 17:55 26.15308 -81.77309 11 ft 5 kts 87°